Location: Corocito
(10.1894°N, 67.0986°W)
Time: 11:30:39
(UTC+00:00)

NOAA 6 - Pass Details

Date: 29 May 2024
Orbit: 770 x 783 km, 98.6° (Epoch: 16 June)

Event Time Altitude Azimuth Distance (km) Brightness Sun altitude
Rises 23:23:44 0° 174° (S) 3,234 6.9 -9.3°
Reaches altitude 10° 23:26:03 10° 177° (S) 2,309 6.2 -9.9°
Maximum altitude 23:31:05 65° 258° (WSW) 848 4.5 -11.0°
Drops below altitude 10° 23:36:09 10° 340° (NNW) 2,315 7.2 -12.1°
Sets 23:38:29 0° 343° (NNW) 3,243 7.9 -12.6°
